Weather History for KNHK - September, 2012

Change the Weather History Date:

Saturday, September 29, 2012

  Actual Average Record
Temperature  
Mean Temperature 62 °F -  
Max Temperature 70 °F 72 °F 83 °F (1986)
Min Temperature 55 °F 57 °F 48 °F (2006)
Degree Days  
Heating Degree Days 3    
Growing Degree Days 12 (Base 50)    
Moisture  
Dew Point 52 °F    
Average Humidity 70    
Maximum Humidity 89    
Minimum Humidity 49    
Precipitation  
Precipitation 0.01 in - - ()
Sea Level Pressure  
Sea Level Pressure 29.96 in    
Wind  
Wind Speed 6 mph (WNW)    
Max Wind Speed 14 mph    
Max Gust Speed -    
Visibility 10 miles    
Events Rain    
Averages and records for this station are not official NWS values.
T = Trace of Precipitation, MM = Missing Value Source: NWS Daily Summary

Daily Weather History Graph

Daily Weather History Graph

Search for Another Location

Airport or City:

Trip Planner

Search our weather history database for the weather conditions in past years. The results will help you decide how hot, cold, wet, or windy it might be!

Date:

Astronomy

Sep. 29, 2012 Rise Set
Actual Time 7:00 AM EDT 6:50 PM EDT
Civil Twilight 6:33 AM EDT 7:17 PM EDT
Nautical Twilight 6:02 AM EDT 7:47 PM EDT
Astronomical Twilight 5:32 AM EDT 8:18 PM EDT
Moon 6:23 PM EDT (9/29) 6:28 AM EDT (9/29)
Length of Visible Light 12h 43m
Length of Day
11h 50m
Full, 100% of the Moon is Illuminated
Sep 29
Full
Sep 29
Full
Oct 8
Last Quarter
Oct 15
New
Oct 21
First Quarter

Hourly Weather History & Observations

Time (EDT) Temp. Dew Point Humidity Pressure Visibility Wind Dir Wind Speed Gust Speed Precip Events Conditions
12:52 AM 63.0 °F 59.0 °F 87% 29.99 in 10.0 mi SW 3.5 mph - 0.00 in Rain Light Rain
1:52 AM 62.1 °F 57.9 °F 86% 29.99 in 10.0 mi West 5.8 mph - 0.01 in Rain Light Rain
2:52 AM 63.0 °F 57.9 °F 84% 29.98 in 10.0 mi WNW 5.8 mph - 0.00 in   Overcast
3:52 AM 63.0 °F 57.0 °F 81% 29.99 in 10.0 mi West 8.1 mph - N/A   Overcast
4:52 AM 62.1 °F 53.1 °F 72% 29.99 in 10.0 mi WNW 9.2 mph - N/A   Overcast
5:52 AM 62.1 °F 53.1 °F 72% 29.99 in 10.0 mi West 6.9 mph - N/A   Overcast
6:16 AM 62.6 °F 53.6 °F 72% 29.98 in 10.0 mi West 8.1 mph - N/A   Mostly Cloudy
6:52 AM 62.1 °F 54.0 °F 75% 29.99 in 10.0 mi West 9.2 mph - N/A   Mostly Cloudy
7:52 AM 62.1 °F 51.1 °F 67% 29.99 in 10.0 mi NW 11.5 mph - N/A   Overcast
8:52 AM 63.0 °F 50.0 °F 63% 30.00 in 10.0 mi NW 13.8 mph - N/A   Overcast
9:52 AM 62.1 °F 50.0 °F 65% 30.01 in 10.0 mi NNW 10.4 mph - N/A   Overcast
10:52 AM 64.0 °F 52.0 °F 65% 30.01 in 10.0 mi West 11.5 mph - N/A   Mostly Cloudy
11:52 AM 64.9 °F 51.1 °F 61% 30.00 in 10.0 mi WNW 6.9 mph - N/A   Mostly Cloudy
12:52 PM 66.9 °F 50.0 °F 54% 29.97 in 10.0 mi NW 11.5 mph - N/A   Mostly Cloudy
1:52 PM 66.0 °F 46.9 °F 50% 29.96 in 10.0 mi WNW 8.1 mph - N/A   Mostly Cloudy
2:52 PM 66.9 °F 46.9 °F 49% 29.94 in 10.0 mi NW 8.1 mph - N/A   Mostly Cloudy
3:52 PM 69.1 °F 48.9 °F 49% 29.93 in 10.0 mi NW 4.6 mph - N/A   Scattered Clouds
4:52 PM 69.1 °F 48.9 °F 49% 29.92 in 10.0 mi Variable 3.5 mph - N/A   Mostly Cloudy
5:52 PM 66.0 °F 51.1 °F 59% 29.92 in 10.0 mi East 4.6 mph - N/A   Mostly Cloudy
6:52 PM 64.0 °F 52.0 °F 65% 29.92 in 10.0 mi Calm Calm - N/A   Scattered Clouds
7:52 PM 59.0 °F 55.0 °F 87% 29.93 in 10.0 mi Calm Calm - N/A   Clear
8:52 PM 59.0 °F 54.0 °F 83% 29.93 in 10.0 mi Calm Calm - N/A   Clear
9:52 PM 57.0 °F 53.1 °F 87% 29.94 in 10.0 mi SW 3.5 mph - N/A   Clear
10:52 PM 55.0 °F 52.0 °F 89% 29.93 in 10.0 mi SW 3.5 mph - N/A   Clear
11:52 PM 55.0 °F 52.0 °F 89% 29.92 in 10.0 mi SW 4.6 mph - N/A   Clear